Regional Weather Roundup
Issued by NWS

Home | Current Version | Previous Version | Text Only | Print | Product List | Glossary Off
Versions: 1 2 3 4 5 6 7 8 9 10 11 12 13 14 15 16 17 18 19 20 21 22 23 24 25 26 27 28

217
ASUS45 KCYS 220610
RWRWY

WYOMING REGIONAL WEATHER ROUNDUP
NATIONAL WEATHER SERVICE CHEYENNE WY
1200 AM MDT FRI MAY 22 2015

NOTE:  "FAIR" INDICATES FEW OR NO CLOUDS BELOW 12,000 FEET
WITH NO SIGNIFICANT WEATHER AND/OR OBSTRUCTIONS TO VISIBILITY.

WYZ001-220700-
YELLOWSTONE NATIONAL PARK

CITY           SKY/WX    TMP DP  RH WIND       PRES   REMARKS
LK YELLOWSTONE   N/A     34  31  88 CALM      30.09S
6HR MIN TEMP:  34; 6HR MAX TEMP:  48;

W YELLOWSTONE  NOT AVBL

$$
WYZ002>013-054>058-071-098>099-220700-
NORTHERN WYOMING

CITY           SKY/WX    TMP DP  RH WIND       PRES   REMARKS
JACKSON        FAIR      45  41  87 N3        30.02F
CODY           CLOUDY    48  43  81 SW14      30.01R
GREYBULL       LGT RAIN  57  49  74 S7        29.96S
6HR MIN TEMP:  56; 6HR MAX TEMP:  69; 6HR PCP: TRACE;

WORLAND        MOCLDY    52  46  80 E3        29.97F
6HR MIN TEMP:  52; 6HR MAX TEMP:  68;

SHERIDAN       FAIR      51  42  71 SE17G25   30.00S
6HR MIN TEMP:  51; 6HR MAX TEMP:  60;

BUFFALO        CLOUDY    48  42  80 S15       30.06S
6HR MIN TEMP:  47; 6HR MAX TEMP:  58;

GILLETTE       CLOUDY    50  42  74 SE16      30.08S
6HR MIN TEMP:  48; 6HR MAX TEMP:  57;

HULETT         MOCLDY    48  39  71 SE8       30.12R
NEWCASTLE      CLOUDY    50  41  71 SE15G21   30.13S

$$
WYZ014>020-022>026-101>103-220700-
CENTRAL WYOMING

CITY           SKY/WX    TMP DP  RH WIND       PRES   REMARKS
BIG PINEY      CLOUDY    45  41  86 NW3       30.06S
6HR MIN TEMP:  44; 6HR MAX TEMP:  51; 6HR PCP: TRACE;

PINEDALE       HVY RAIN  43  41  93 SW7       30.06S
DUBOIS         DRIZZLE   41  37  87 CALM      30.07S
LANDER         CLOUDY    48  43  82 S3        30.01F
6HR MIN TEMP:  48; 6HR MAX TEMP:  57; 6HR PCP: TRACE;

RIVERTON       CLOUDY    48  44  86 NW6       30.02F
CASPER         FAIR      46  42  86 E10       30.04S
6HR MIN TEMP:  46; 6HR MAX TEMP:  58;

DOUGLAS        CLOUDY    49  44  83 SE13      30.06F
6HR MIN TEMP:  47; 6HR MAX TEMP:  53;


$$
WYZ021-027>030-104>119-220700-
SOUTHERN WYOMING

CITY           SKY/WX    TMP DP  RH WIND       PRES   REMARKS
EVANSTON       FAIR      40  37  89 SE5       30.01F
6HR MIN TEMP:  40; 6HR MAX TEMP:  47; 6HR PCP:  0.11;

KEMMERER       CLOUDY    41  37  87 NE6       30.04F
FORT BRIDGER   CLOUDY    43  43 100 SE5       30.06F
ROCK SPRINGS   CLOUDY    45  41  86 E9        30.03S
6HR MIN TEMP:  44; 6HR MAX TEMP:  54; 6HR PCP: TRACE;

DIXON          MOCLDY    48  42  81 NE10      30.03S
RAWLINS        MOCLDY    43  40  89 N12       30.03F
6HR MIN TEMP:  43; 6HR MAX TEMP:  53; 6HR PCP:  0.47;

SARATOGA       DRIZZLE   45  41  87 NE10      30.07S
LARAMIE        CLOUDY    42  41  96 SE17      30.06F FOG
6HR MIN TEMP:  42; 6HR MAX TEMP:  50;

CHEYENNE       CLOUDY    45  42  89 SE15G25   30.09F
6HR MIN TEMP:  45; 6HR MAX TEMP:  52;

TORRINGTON     CLOUDY    50  44  80 SE10      30.08F
6HR MIN TEMP:  50; 6HR MAX TEMP:  54;

PINE BLUFFS    CLOUDY    46  43  87 SE20      30.10F

$$



USA.gov is the U.S. government's official web portal to all federal, state and local government web resources and services.